Weather reports worldwide

Advertisment
Cassley, United Kingdom (99003): temperature & dewpoint: 14.10.2017 22:00:00 - 20.10.2017 22:00:00 (BST)Cassley, United Kingdom (99003): precipitation: 14.10.2017 22:00:00 - 20.10.2017 22:00:00 (BST)
Date & Time tt [°C] td [°C] rr [mm]
20.10.2017 22:00:00 - - -
20.10.2017 21:00:00 - - 0,0
20.10.2017 20:00:00 11,3 10,9 0,0
20.10.2017 19:00:00 11,5 11,0 0,0
20.10.2017 18:00:00 11,5 11,0 0,0
20.10.2017 17:00:00 11,3 10,8 0,0
20.10.2017 16:00:00 11,8 11,1 0,2
20.10.2017 15:00:00 12,2 11,4 0,0
20.10.2017 14:00:00 11,8 11,6 0,0
20.10.2017 13:00:00 - - 0,0
20.10.2017 12:00:00 - - 0,0
20.10.2017 11:00:00 11,8 10,7 0,0
20.10.2017 10:00:00 11,5 10,9 0,0
20.10.2017 09:00:00 11,2 10,6 0,0
20.10.2017 08:00:00 11,0 10,4 0,0
20.10.2017 07:00:00 10,0 9,9 0,0
20.10.2017 06:00:00 9,7 9,6 0,0
20.10.2017 05:00:00 9,5 9,3 0,2
20.10.2017 04:00:00 10,1 9,9 0,2
20.10.2017 03:00:00 10,4 10,2 0,6
20.10.2017 02:00:00 10,5 10,3 1,0
20.10.2017 01:00:00 10,7 10,3 1,0
20.10.2017 00:00:00 10,9 10,5 0,6
19.10.2017 23:00:00 11,1 10,7 0,2
19.10.2017 22:00:00 11,0 10,5 0,4
19.10.2017 21:00:00 11,0 10,3 0,0
19.10.2017 20:00:00 11,4 10,4 0,0
19.10.2017 19:00:00 11,6 10,5 0,0
19.10.2017 18:00:00 11,6 10,3 0,0
19.10.2017 17:00:00 12,3 10,6 0,0
19.10.2017 16:00:00 12,4 10,5 0,0
19.10.2017 15:00:00 12,6 10,4 0,0
19.10.2017 14:00:00 12,1 10,0 0,0
19.10.2017 13:00:00 11,9 10,1 0,0
19.10.2017 12:00:00 11,7 9,9 0,0
19.10.2017 11:00:00 11,4 9,7 0,0
19.10.2017 10:00:00 10,9 9,2 0,0
19.10.2017 09:00:00 10,4 9,0 0,0
19.10.2017 08:00:00 9,9 8,6 0,0
19.10.2017 07:00:00 8,9 8,0 0,0
19.10.2017 06:00:00 8,0 7,0 0,0
19.10.2017 05:00:00 7,8 6,8 0,0
19.10.2017 04:00:00 7,6 6,5 0,0
19.10.2017 03:00:00 7,6 6,2 0,0
19.10.2017 02:00:00 7,2 6,3 0,0
19.10.2017 01:00:00 7,5 6,1 0,0
19.10.2017 00:00:00 8,1 6,7 0,0
18.10.2017 23:00:00 8,1 6,8 0,0
18.10.2017 22:00:00 8,1 6,6 0,0
18.10.2017 21:00:00 8,2 6,7 0,0
18.10.2017 20:00:00 8,5 6,9 0,0
18.10.2017 19:00:00 8,5 7,2 0,0
18.10.2017 18:00:00 8,5 6,9 0,0
18.10.2017 17:00:00 8,9 7,0 0,0
18.10.2017 16:00:00 9,5 6,2 0,0
18.10.2017 15:00:00 9,5 6,3 0,0
18.10.2017 14:00:00 9,1 6,8 0,0
18.10.2017 13:00:00 11,1 5,8 0,0
18.10.2017 12:00:00 9,0 7,2 0,0
18.10.2017 11:00:00 7,3 6,2 0,0
18.10.2017 10:00:00 6,1 5,5 0,0
18.10.2017 09:00:00 5,4 4,9 0,0
18.10.2017 08:00:00 4,9 4,2 0,0
18.10.2017 07:00:00 5,2 4,3 0,0
18.10.2017 06:00:00 4,7 4,2 0,0
18.10.2017 05:00:00 4,6 4,0 0,0
18.10.2017 04:00:00 4,1 3,2 0,0
18.10.2017 03:00:00 4,2 3,2 0,0
18.10.2017 02:00:00 5,7 4,2 0,0
18.10.2017 01:00:00 6,6 5,2 0,0
18.10.2017 00:00:00 6,8 5,4 0,0
17.10.2017 23:00:00 7,1 5,4 0,0
17.10.2017 22:00:00 6,9 5,1 0,0
17.10.2017 21:00:00 7,3 5,4 0,0
17.10.2017 20:00:00 8,1 5,6 0,0
17.10.2017 19:00:00 8,2 5,8 0,0
17.10.2017 18:00:00 8,7 6,2 0,0
17.10.2017 17:00:00 8,9 7,1 0,2
17.10.2017 16:00:00 9,3 7,4 0,0
17.10.2017 15:00:00 9,3 7,1 0,0
17.10.2017 14:00:00 9,4 7,7 0,0
17.10.2017 13:00:00 9,9 7,4 0,0
17.10.2017 12:00:00 10,2 8,0 0,0
17.10.2017 11:00:00 10,6 8,5 0,0
17.10.2017 10:00:00 11,2 9,0 0,0
17.10.2017 09:00:00 11,7 10,1 0,0
17.10.2017 08:00:00 11,4 10,5 0,4
17.10.2017 07:00:00 11,2 10,3 0,0
17.10.2017 06:00:00 10,9 10,3 0,0
17.10.2017 05:00:00 10,4 10,1 0,4
17.10.2017 04:00:00 10,3 10,0 1,0
17.10.2017 03:00:00 10,4 10,0 0,4
17.10.2017 02:00:00 10,6 10,1 1,2
17.10.2017 01:00:00 10,8 10,2 2,4
17.10.2017 00:00:00 11,6 10,2 0,2
16.10.2017 23:00:00 11,9 11,1 0,2
16.10.2017 22:00:00 11,6 11,0 0,4
16.10.2017 21:00:00 11,2 10,5 0,4
16.10.2017 20:00:00 10,2 9,0 0,0
16.10.2017 19:00:00 9,4 8,5 -
16.10.2017 18:00:00 8,9 8,3 0,6
16.10.2017 17:00:00 9,0 8,0 0,0
16.10.2017 16:00:00 8,6 7,4 0,0
16.10.2017 15:00:00 8,1 6,8 0,2
16.10.2017 14:00:00 7,8 6,6 1,2
16.10.2017 13:00:00 7,9 7,3 0,6
16.10.2017 12:00:00 7,7 7,3 2,0
16.10.2017 11:00:00 7,6 7,0 0,8
16.10.2017 10:00:00 7,7 7,0 1,2
16.10.2017 09:00:00 7,3 6,8 0,0
16.10.2017 08:00:00 6,9 6,4 0,0
16.10.2017 07:00:00 7,0 6,2 0,0
16.10.2017 06:00:00 7,6 6,7 0,0
16.10.2017 05:00:00 8,1 6,9 0,0
16.10.2017 04:00:00 7,4 6,3 0,0
16.10.2017 03:00:00 7,7 6,2 0,0
16.10.2017 02:00:00 7,9 6,0 0,0
16.10.2017 01:00:00 8,7 5,8 0,0
16.10.2017 00:00:00 9,0 6,3 0,0
15.10.2017 23:00:00 8,8 6,5 0,2
15.10.2017 22:00:00 8,9 6,7 0,0
15.10.2017 21:00:00 8,6 6,6 0,0
15.10.2017 20:00:00 8,6 7,1 0,2
15.10.2017 19:00:00 8,6 6,9 0,0
15.10.2017 18:00:00 9,2 7,0 0,0
15.10.2017 17:00:00 9,5 8,1 0,0
15.10.2017 16:00:00 9,8 8,6 0,8
15.10.2017 15:00:00 10,7 9,9 1,0
15.10.2017 14:00:00 15,1 11,9 0,2
15.10.2017 13:00:00 17,9 11,4 0,0
15.10.2017 12:00:00 16,4 12,7 0,0
15.10.2017 11:00:00 14,8 13,1 0,0
15.10.2017 10:00:00 14,5 12,9 0,4
15.10.2017 09:00:00 14,7 13,0 0,4
15.10.2017 08:00:00 14,2 12,7 0,2
15.10.2017 07:00:00 12,5 12,4 1,8
15.10.2017 06:00:00 8,7 8,5 2,2
15.10.2017 05:00:00 8,3 8,0 1,0
15.10.2017 04:00:00 8,3 8,0 1,0
15.10.2017 03:00:00 8,4 8,0 1,0
15.10.2017 02:00:00 8,4 8,0 0,0
15.10.2017 01:00:00 8,4 8,1 0,8
15.10.2017 00:00:00 8,5 8,2 1,2
14.10.2017 23:00:00 8,2 7,6 0,6
14.10.2017 22:00:00 8,8 7,0 0,2

tt = temperature
td = dewpoint
rr = precipitation

Next stations